When you browse on this site, cookies collect data to enhance your experience and personalize the content and advertising you see.
Visit our Privacy Policy to learn more. By continuing to use the site, you agree to this use of cookies and data.
  • In Hungary
  • List of Countries
  • For 7 days
  • Water Temperature
  • Satellite Maps
  • Weather Map
  • News
  • Weather Widgets
  • user-avatar
    Login

    Hourly Weather Aleksandria

    Today, 16 January, Wednesday

    Time Temperature Precipitation Wind Pressure Humidity
    00:00 +13°C° 0.1 mm 11 mps 757 mmHg 46%
    01:00 +13°C° 0.1 mm 12 mps 757 mmHg 51%
    02:00 +13°C° 0 mm 12 mps 756 mmHg 54%
    03:00 +13°C° 0.1 mm 12 mps 756 mmHg 56%
    04:00 +13°C° 0.1 mm 12 mps 757 mmHg 58%
    05:00 +13°C° 0.1 mm 11 mps 757 mmHg 61%
    06:00 +13°C° 0.2 mm 12 mps 757 mmHg 59%
    07:00 +13°C° 0.2 mm 13 mps 757 mmHg 58%
    08:00 +12°C° 0 mm 13 mps 757 mmHg 57%
    09:00 +12°C° 0.2 mm 14 mps 758 mmHg 54%
    10:00 +12°C° 0.2 mm 14 mps 758 mmHg 51%
    11:00 +11°C° 0.2 mm 15 mps 759 mmHg 48%
    12:00 +12°C° 0.5 mm 14 mps 759 mmHg 50%
    13:00 +12°C° 0.5 mm 14 mps 760 mmHg 52%
    14:00 +10°C° 0 mm 13 mps 759 mmHg 54%
    15:00 +10°C° 0.5 mm 14 mps 760 mmHg 53%
    16:00 +10°C° 0.5 mm 14 mps 760 mmHg 53%
    17:00 +10°C° 0.5 mm 14 mps 761 mmHg 53%
    18:00 +10°C° 0.1 mm 13 mps 762 mmHg 54%
    19:00 +10°C° 0.1 mm 12 mps 762 mmHg 55%
    20:00 +11°C° 0.1 mm 11 mps 763 mmHg 56%
    21:00 +11°C° 0 mm 11 mps 763 mmHg 57%
    22:00 +11°C° 0 mm 10 mps 764 mmHg 58%
    23:00 +11°C° 0 mm 10 mps 764 mmHg 60%

    Tomorrow, 17 January, Thursday

    Time Temperature Precipitation Wind Pressure Humidity
    00:00 +11°C° 0 mm 9 mps 765 mmHg 62%
    01:00 +11°C° 0 mm 9 mps 765 mmHg 63%
    02:00 +11°C° 0 mm 9 mps 765 mmHg 65%
    03:00 +11°C° 0 mm 8 mps 765 mmHg 64%
    04:00 +12°C° 0 mm 8 mps 765 mmHg 64%
    05:00 +12°C° 0 mm 8 mps 765 mmHg 63%
    06:00 +12°C° 0 mm 7 mps 766 mmHg 64%
    07:00 +12°C° 0 mm 7 mps 766 mmHg 65%
    08:00 +13°C° 0 mm 6 mps 766 mmHg 66%
    09:00 +14°C° 0 mm 6 mps 766 mmHg 64%
    10:00 +14°C° 0 mm 6 mps 767 mmHg 62%
    11:00 +15°C° 0 mm 5 mps 767 mmHg 60%
    12:00 +15°C° 0 mm 5 mps 767 mmHg 59%
    13:00 +15°C° 0 mm 5 mps 767 mmHg 58%
    14:00 +15°C° 0 mm 5 mps 766 mmHg 57%
    15:00 +15°C° 0 mm 4 mps 766 mmHg 56%
    16:00 +15°C° 0 mm 4 mps 766 mmHg 56%
    17:00 +15°C° 0 mm 4 mps 767 mmHg 55%
    18:00 +15°C° 0 mm 4 mps 767 mmHg 56%
    19:00 +14°C° 0 mm 3 mps 767 mmHg 57%
    20:00 +14°C° 0 mm 3 mps 767 mmHg 58%
    21:00 +14°C° 0 mm 3 mps 767 mmHg 59%
    22:00 +14°C° 0 mm 3 mps 767 mmHg 60%
    23:00 +14°C° 0 mm 3 mps 767 mmHg 61%

    Day after tomorrow, 18 January, Friday

    Time Temperature Precipitation Wind Pressure Humidity
    00:00 +14°C° 0 mm 3 mps 767 mmHg 61%
    01:00 +15°C° 0 mm 2 mps 767 mmHg 62%
    02:00 +14°C° 0 mm 2 mps 767 mmHg 63%
    03:00 +14°C° 0 mm 2 mps 767 mmHg 63%
    04:00 +14°C° 0 mm 2 mps 766 mmHg 63%
    05:00 +14°C° 0 mm 2 mps 766 mmHg 63%
    06:00 +14°C° 0 mm 2 mps 766 mmHg 62%
    07:00 +14°C° 0 mm 2 mps 767 mmHg 62%
    08:00 +15°C° 0 mm 2 mps 767 mmHg 62%
    09:00 +15°C° 0 mm 2 mps 767 mmHg 60%
    10:00 +16°C° 0 mm 2 mps 767 mmHg 57%
    11:00 +17°C° 0 mm 2 mps 767 mmHg 54%
    12:00 +17°C° 0 mm 2 mps 767 mmHg 53%
    13:00 +17°C° 0 mm 2 mps 766 mmHg 51%
    14:00 +18°C° 0 mm 3 mps 766 mmHg 50%
    15:00 +17°C° 0 mm 3 mps 766 mmHg 52%
    16:00 +17°C° 0 mm 3 mps 766 mmHg 54%
    17:00 +16°C° 0 mm 3 mps 766 mmHg 56%
    18:00 +16°C° 0 mm 2 mps 766 mmHg 59%
    19:00 +15°C° 0 mm 2 mps 767 mmHg 62%
    20:00 +14°C° 0 mm 2 mps 767 mmHg 65%
    21:00 +14°C° 0 mm 2 mps 767 mmHg 66%
    22:00 +14°C° 0 mm 1 mps 767 mmHg 68%
    23:00 +14°C° 0 mm 1 mps 767 mmHg 70%

    19 January, Saturday

    Time Temperature Precipitation Wind Pressure Humidity
    00:00 +13°C° 0 mm 1 mps 767 mmHg 72%
    01:00 +13°C° 0 mm 1 mps 767 mmHg 74%
    02:00 +13°C° 0 mm 1 mps 767 mmHg 76%
    03:00 +12°C° 0 mm 1 mps 767 mmHg 78%
    04:00 +12°C° 0 mm 1 mps 766 mmHg 80%
    05:00 +12°C° 0 mm 1 mps 766 mmHg 82%
    06:00 +12°C° 0 mm 1 mps 767 mmHg 81%
    07:00 +12°C° 0 mm 1 mps 767 mmHg 81%
    08:00 +13°C° 0 mm 1 mps 767 mmHg 81%
    09:00 +14°C° 0 mm 1 mps 767 mmHg 73%
    10:00 +16°C° 0 mm 1 mps 767 mmHg 66%
    11:00 +18°C° 0 mm 1 mps 767 mmHg 58%
    12:00 +18°C° 0 mm 2 mps 766 mmHg 55%
    13:00 +18°C° 0 mm 2 mps 766 mmHg 53%
    14:00 +19°C° 0 mm 3 mps 765 mmHg 50%
    15:00 +18°C° 0 mm 3 mps 765 mmHg 53%
    16:00 +17°C° 0 mm 3 mps 765 mmHg 57%
    17:00 +17°C° 0 mm 4 mps 765 mmHg 61%
    18:00 +15°C° 0 mm 4 mps 765 mmHg 63%
    19:00 +14°C° 0 mm 3 mps 766 mmHg 66%
    20:00 +13°C° 0 mm 3 mps 766 mmHg 68%
    21:00 +13°C° 0 mm 3 mps 766 mmHg 69%
    22:00 +13°C° 0 mm 3 mps 766 mmHg 69%
    23:00 +12°C° 0 mm 3 mps 766 mmHg 70%

    20 January, Sunday

    Time Temperature Precipitation Wind Pressure Humidity
    00:00 +12°C° 0 mm 3 mps 766 mmHg 72%
    01:00 +12°C° 0 mm 3 mps 766 mmHg 74%
    02:00 +11°C° 0 mm 3 mps 765 mmHg 76%
    03:00 +12°C° 0 mm 2 mps 765 mmHg 78%
    04:00 +12°C° 0 mm 2 mps 765 mmHg 80%
    05:00 +10°C° 0 mm 2 mps 765 mmHg 81%
    06:00 +12°C° 0 mm 2 mps 765 mmHg 80%
    07:00 +12°C° 0 mm 2 mps 766 mmHg 78%
    08:00 +11°C° 0 mm 3 mps 766 mmHg 76%
    09:00 +14°C° 0 mm 2 mps 766 mmHg 68%
    10:00 +15°C° 0 mm 2 mps 766 mmHg 60%
    11:00 +17°C° 0 mm 2 mps 766 mmHg 52%
    12:00 +19°C° 0 mm 1 mps 765 mmHg 49%
    13:00 +19°C° 0 mm 1 mps 765 mmHg 46%
    14:00 +18°C° 0 mm 0 mps 764 mmHg 43%
    15:00 +20°C° 0 mm 1 mps 764 mmHg 46%
    16:00 +18°C° 0 mm 2 mps 764 mmHg 50%
    17:00 +18°C° 0 mm 2 mps 764 mmHg 53%
    18:00 +17°C° 0 mm 2 mps 764 mmHg 58%
    19:00 +16°C° 0 mm 3 mps 764 mmHg 63%
    20:00 +14°C° 0 mm 3 mps 765 mmHg 69%
    21:00 +14°C° 0 mm 3 mps 765 mmHg 71%
    22:00 +15°C° 0 mm 2 mps 765 mmHg 72%
    23:00 +14°C° 0 mm 2 mps 765 mmHg 74%

    21 January, Monday

    Time Temperature Precipitation Wind Pressure Humidity
    00:00 +14°C° 0 mm 2 mps 765 mmHg 75%
    01:00 +13°C° 0 mm 2 mps 765 mmHg 76%
    02:00 +13°C° 0 mm 2 mps 764 mmHg 77%
    03:00 +13°C° 0 mm 2 mps 764 mmHg 77%
    04:00 +13°C° 0 mm 2 mps 764 mmHg 76%
    05:00 +12°C° 0 mm 2 mps 764 mmHg 76%
    06:00 +13°C° 0 mm 2 mps 764 mmHg 75%
    07:00 +13°C° 0 mm 2 mps 765 mmHg 73%
    08:00 +12°C° 0 mm 3 mps 765 mmHg 72%
    09:00 +15°C° 0 mm 2 mps 765 mmHg 64%
    10:00 +17°C° 0 mm 2 mps 765 mmHg 56%
    11:00 +19°C° 0 mm 2 mps 765 mmHg 48%
    12:00 +19°C° 0 mm 2 mps 765 mmHg 45%
    13:00 +20°C° 0 mm 2 mps 764 mmHg 43%
    14:00 +22°C° 0 mm 1 mps 764 mmHg 41%
    15:00 +20°C° 0 mm 2 mps 764 mmHg 46%
    16:00 +19°C° 0 mm 3 mps 764 mmHg 51%
    17:00 +19°C° 0 mm 4 mps 764 mmHg 56%
    18:00 +17°C° 0 mm 4 mps 764 mmHg 62%
    19:00 +15°C° 0 mm 4 mps 765 mmHg 68%
    20:00 +14°C° 0 mm 5 mps 765 mmHg 74%
    21:00 +14°C° 0 mm 5 mps 765 mmHg 74%
    22:00 +13°C° 0 mm 5 mps 765 mmHg 74%
    23:00 +13°C° 0 mm 5 mps 765 mmHg 74%
    Show more